Regional Weather Roundup
Issued by NWS

Home | Current Version | Previous Version | Text Only | Print | Product List | Glossary On
Versions: 1 2 3 4 5 6 7 8 9 10 11 12 13 14 15 16 17 18 19 20 21 22 23 24 25 26 27 28 29 30 31 32 33 34 35 36 37 38 39 40 41 42 43 44 45 46 47 48 49 50
411
ASUS44 KLIX 010305
RWRLA
LOUISIANA WEATHER ROUNDUP
NATIONAL WEATHER SERVICE NEW ORLEANS LA
1000 PM CDT SUN AUG 31 2014

NOTE: "FAIR" INDICATES FEW OR NO CLOUDS BELOW 12,000 FEET WITH NO
      SIGNIFICANT WEATHER AND/OR OBSTRUCTIONS TO VISIBILITY.
      SKY/WX - SKY CONDITION AND SIGNIFICANT WEATHER.
      TMP - AIR TEMPERATURE.    DP   - DEWPOINT TEMPERATURE.
      RH  - RELATIVE HUMIDITY.  PRES - PRESSURE.
      HX  - HEAT INDEX.         WCI  - WIND CHILL INDEX.

*  THESE STATIONS ARE NOT NWS OR FAA STATIONS AND ARE NOT UNDER
   NWS QUALITY CONTROL.

LAZ040-048-061>063-065-066-069-010400-
SOUTHEAST LOUISIANA

CITY           SKY/WX    TMP DP  RH WIND       PRES   REMARKS
N.O. AUDUBON     N/A     85  78  81 MISG        N/A  HX  96
N.O. INTL ARPT MOCLDY    82  75  79 SE6       30.05R
N.O. LAKEFRONT PTCLDY    83  77  82 SE9       30.06R
N.O. DOWNTOWN* FAIR      84  73  70 S5        30.06S
SLIDELL        PTCLDY    81  76  84 SE5       30.06R
BATON ROUGE    MOCLDY    80  73  79 SE5       30.03S
BOOTHVILLE     CLEAR     83  78  85 SE5       30.07R
BELLE CHASSE   PTCLDY    81  75  82 SE7       30.05R
BOGALUSA*      FAIR      81  74  79 CALM      30.08R
GALLIANO*      NOT AVBL
NEW ROADS*     FAIR      80  75  84 SE3       30.03S
GONZALES*      FAIR      78  78 100 CALM      30.04R
HAMMOND*       PTCLDY    81  75  83 CALM      30.07R
HOUMA*         PTCLDY    80  75  85 SE5       30.05R
PORT FOURCHON* NOT AVBL

$$

LAZ041-044-053-054-010400-
SOUTHWEST LOUISIANA

CITY           SKY/WX    TMP DP  RH WIND       PRES   REMARKS
LAKE CHARLES   MOCLDY    79  76  90 SE5       29.99S
LAFAYETTE      PTCLDY    80  77  90 CALM      30.02R
PATTERSON        N/A     81  77  89 SE6       30.06S
SALT POINT       N/A     86  79  79 SE7       30.02R HX  99
NEW IBERIA     MOCLDY    80  77  90 SE7       30.02S
CHENAULT AIRPK MOCLDY    78  74  87 SE3       30.01R

$$

LAZ027-028-010400-
CENTRAL LOUISIANA

CITY           SKY/WX    TMP DP  RH WIND       PRES   REMARKS
FORT POLK      CLOUDY    75  74  96 SE3       30.01R
ALEXANDRIA INT MOCLDY    75  73  93 CALM      29.99S
ALEXANDRIA     PTCLDY    75  73  93 CALM      30.01S

$$

LAZ001-002-010400-
NORTHWEST LOUISIANA

CITY           SKY/WX    TMP DP  RH WIND       PRES   REMARKS
SHREVEPORT     PTCLDY    78  71  79 S7        29.97S
BARKSDALE AFB  MOCLDY    76  70  81 SE7       29.98S
DTN SHREVEPORT PTCLDY    79  71  76 S9        29.97S

$$

LAZ014-016-010400-
NORTHEAST LOUISIANA

CITY           SKY/WX    TMP DP  RH WIND       PRES   REMARKS
MONROE         MOCLDY    76  69  79 S3        30.01S
TALLULAH       PTCLDY    77  75  93 CALM      30.02S

$$




USA.gov is the U.S. government's official web portal to all federal, state and local government web resources and services.